レモン彗星

C/2016 X1 ( Lemmon )

English version
Home page
Updated on July 9, 2019

---------------------------------------------------------------------

・ プロフィール

発見日 2016年12月8日
発見光度 20.1等
発見者 G. J. Leonard (Mount Lemmon)

・ 写真集

・ 軌道要素

Epoch 2019 Apr. 27.0 TT = JDT 2458600.5
T 2019 Apr. 29.73021 TT                                 MPCW
q   7.5642763            (2000.0)            P               Q
z  +0.0005852      Peri.  224.55676     -0.44336791     -0.78477934
 +/-0.0000014      Node   256.42671     +0.89508668     -0.36210447
e   0.9955732      Incl.   26.45591     +0.04737859     -0.50299278
From 206 observations 2016 Nov. 26-2019 May 2, mean residual 0".4.

・ 光度変化

        m1 = -3.8 + 5 logΔ + 20.0 log r

---------------------------------------------------------------------

軌道要素はM.P.E.C. 2019-J142に掲載されたものです。
光度グラフはComet for Windowsで作成したものです。

---------------------------------------------------------------------

Copyright(C) Seiichi Yoshida (comet@aerith.net). All rights reserved.